TimeChST,TemperatureF,Dew PointF,Humidity,Sea Level PressureIn,VisibilityMPH,Wind Direction,Wind SpeedMPH,Gust SpeedMPH,PrecipitationIn,Events,Conditions,WindDirDegrees,DateUTC
12:54 AM,78.1,75.9,93,29.89,10.0,Calm,Calm,-,N/A,,Clear,0,2013-09-12 14:54:00
1:54 AM,78.1,75.9,93,29.87,10.0,SW,4.6,-,0.02,,Partly Cloudy,220,2013-09-12 15:54:00
2:08 AM,78.8,75.2,89,29.81,6.0,SSW,11.5,17.3,0.00,Rain,Light Rain,200,2013-09-12 16:08:00
2:14 AM,77.0,73.4,89,29.80,2.5,SSW,9.2,-,0.06,Rain,Heavy Rain,200,2013-09-12 16:14:00
2:21 AM,77.0,73.4,89,29.80,4.0,South,5.8,-,0.15,Rain,Rain,170,2013-09-12 16:21:00
2:54 AM,75.9,73.0,91,29.87,4.0,West,6.9,-,0.31,Rain,Rain,280,2013-09-12 16:54:00
3:07 AM,75.2,73.4,94,29.79,2.0,NW,5.8,17.3,0.15,Rain,Rain,310,2013-09-12 17:07:00
3:17 AM,75.2,73.4,94,29.79,9.0,Calm,Calm,-,0.15,Rain,Rain,0,2013-09-12 17:17:00
3:54 AM,75.9,73.9,94,29.87,4.0,WNW,6.9,-,0.17,Rain,Rain,290,2013-09-12 17:54:00
3:56 AM,75.2,73.4,94,29.81,2.0,WNW,6.9,-,0.02,Rain,Rain,300,2013-09-12 17:56:00
4:03 AM,75.2,75.2,100,29.79,1.8,Variable,3.5,-,0.17,Rain,Rain,0,2013-09-12 18:03:00
4:07 AM,75.2,75.2,100,29.79,3.0,WNW,4.6,-,0.18,Rain,Rain,290,2013-09-12 18:07:00
4:26 AM,77.0,75.2,94,29.81,4.0,West,27.6,43.7,0.20,Rain,Rain,260,2013-09-12 18:26:00
4:54 AM,73.9,73.0,97,29.89,4.0,WNW,11.5,20.7,0.57,Rain,Rain,290,2013-09-12 18:54:00
5:15 AM,75.2,73.4,94,29.81,1.8,SW,19.6,27.6,0.05,Rain,Rain,230,2013-09-12 19:15:00
5:22 AM,73.4,71.6,94,29.80,4.0,West,8.1,26.5,0.18,Rain,Rain,260,2013-09-12 19:22:00
5:54 AM,75.9,73.0,91,29.88,4.0,West,5.8,-,0.18,Rain,Rain,260,2013-09-12 19:54:00
6:54 AM,77.0,75.0,94,29.90,10.0,SW,5.8,-,0.02,Rain,Light Rain,230,2013-09-12 20:54:00
7:54 AM,78.1,75.0,90,29.91,7.0,WSW,13.8,-,0.01,Rain,Light Rain,240,2013-09-12 21:54:00
8:22 AM,75.2,73.4,94,29.87,5.0,South,12.7,21.9,0.21,Rain,Light Rain,180,2013-09-12 22:22:00
8:54 AM,75.9,73.9,94,29.96,8.0,SW,6.9,-,0.26,Rain,Light Rain,220,2013-09-12 22:54:00
9:01 AM,77.0,73.4,89,29.89,8.0,SSW,8.1,-,0.01,Rain,Light Rain,210,2013-09-12 23:01:00
9:35 AM,75.2,73.4,94,29.90,5.0,SSW,13.8,25.3,0.04,Rain,Rain,210,2013-09-12 23:35:00
9:54 AM,75.9,73.0,91,29.96,10.0,South,12.7,20.7,0.05,Rain,Light Rain,190,2013-09-12 23:54:00
10:54 AM,77.0,75.0,94,29.92,10.0,South,11.5,-,0.03,Rain,Light Rain,190,2013-09-13 00:54:00
11:27 AM,78.8,75.2,89,29.85,10.0,SW,11.5,-,0.01,Rain,Light Rain,220,2013-09-13 01:27:00
11:51 AM,78.8,75.2,89,29.85,10.0,SSW,16.1,21.9,0.01,,Partly Cloudy,200,2013-09-13 01:51:00
11:54 AM,78.1,75.9,93,29.91,7.0,SSW,17.3,23.0,0.01,,Scattered Clouds,200,2013-09-13 01:54:00
11:58 AM,77.0,75.2,94,29.84,5.0,SSW,18.4,29.9,0.00,Rain,Light Rain,200,2013-09-13 01:58:00
12:11 PM,75.2,73.4,94,29.84,7.0,SSW,15.0,25.3,0.01,Rain,Light Rain,200,2013-09-13 02:11:00
12:54 PM,75.9,73.0,91,29.88,10.0,SSW,10.4,-,0.03,Rain,Light Rain,210,2013-09-13 02:54:00
1:54 PM,80.1,75.9,87,29.84,10.0,SSW,8.1,-,0.02,,Partly Cloudy,210,2013-09-13 03:54:00
2:54 PM,81.0,77.0,88,29.83,10.0,SSW,6.9,-,N/A,,Clear,210,2013-09-13 04:54:00
3:54 PM,81.0,75.0,82,29.83,10.0,SSW,9.2,-,N/A,,Scattered Clouds,200,2013-09-13 05:54:00
4:54 PM,81.0,75.9,85,29.83,10.0,SSW,8.1,-,N/A,,Clear,210,2013-09-13 06:54:00
5:54 PM,81.0,75.9,85,29.85,10.0,SSW,8.1,-,N/A,,Clear,200,2013-09-13 07:54:00
6:54 PM,80.1,75.9,87,29.88,10.0,South,5.8,-,N/A,,Clear,190,2013-09-13 08:54:00
7:54 PM,75.9,73.9,94,29.90,4.0,WSW,16.1,27.6,0.37,Rain,Heavy Rain,250,2013-09-13 09:54:00
8:54 PM,75.9,75.9,100,29.92,9.0,West,3.5,-,0.33,Rain,Light Rain,270,2013-09-13 10:54:00
9:11 PM,75.2,75.2,100,29.85,10.0,WSW,9.2,-,0.01,Rain,Light Rain,240,2013-09-13 11:11:00
9:54 PM,75.9,73.9,94,29.90,10.0,WSW,4.6,-,0.01,,Clear,240,2013-09-13 11:54:00
10:54 PM,77.0,75.0,94,29.90,10.0,WSW,5.8,-,N/A,,Clear,250,2013-09-13 12:54:00
11:54 PM,78.1,75.0,90,29.87,10.0,SSW,5.8,-,N/A,,Clear,210,2013-09-13 13:54:00